Location: Goheenville
(40.9070°N, 79.3720°W)
Time: 09:36:00
(UTC-04:00)

Meteor 2-10 Rocket - Visible Passes

Search period start: 01 September 2014 00:00
Search period end: 11 September 2014 00:00
Orbit: 734 x 886 km, 81.2° (Epoch: 31 August)

Date Brightness Start Highest point End Pass type
(mag) Time Alt. Az. Time Alt. Az. Time Alt. Az.
01 Sep 6.3 05:19:11 10° SE 05:23:06 20° E 05:26:55 10° NE visible
02 Sep 6.5 04:56:25 10° ESE 04:59:10 14° E 05:01:52 10° NE visible
03 Sep 3.7 06:11:00 10° S 06:16:30 86° E 06:21:48 10° N visible
04 Sep 4.2 05:47:02 10° S 05:52:25 62° E 05:57:36 10° NNE visible
05 Sep 4.8 05:23:15 10° SSE 05:28:22 43° E 05:33:18 10° NNE visible
06 Sep 5.4 04:59:40 10° SSE 05:04:20 31° E 05:08:52 10° NNE visible
07 Sep 5.9 04:36:21 10° SE 04:40:21 22° E 04:44:16 10° NE visible
07 Sep 4.0 06:17:00 10° SSW 06:22:06 43° WNW 06:27:03 10° N visible
08 Sep 6.3 04:13:26 10° ESE 04:16:24 15° E 04:19:20 10° NE visible
08 Sep 3.6 05:52:38 10° SSW 05:57:56 61° WNW 06:03:04 10° N visible
09 Sep 6.5 03:52:00 10° E 03:52:30 10° E 03:53:00 10° ENE visible
09 Sep 3.5 05:28:26 10° S 05:33:48 85° W 05:38:59 10° N visible
10 Sep 3.8 05:04:24 10° S 05:09:41 68° E 05:14:49 10° NNE visible
